カタログに戻る

STARLINK-32487

運用中通信VLEO
NORAD 61963·PAYLOAD·🇺🇸 United States

打ち上げ Nov 14, 2024 から Cape Canaveral Space Force Station

Loading…

次のパス (今後24時間)

TLE

最新Source: CelesTrak SupGP

元期: Sep 14, 2026, 20:33 UTC

1 61963C 24210E   26257.85673611  .00018166  00000+0  65777-3 0  2576
2 61963  43.0022 191.5983 0001321 263.4751 309.1784 15.27579061    15

AllMySatでSTARLINK-32487をリアルタイム追跡

Download on the App Store